Location: Newark
(13.9550°N, 109.0422°E)
Time: 18:43:35
(UTC+00:00)

Hubble Space Telescope - Pass Details

Date: 31 October 2019
Orbit: 536 x 540 km, 28.5° (Epoch: 17 November)

Event Time Altitude Azimuth Distance (km) Brightness Sun altitude
Exits shadow 21:51:24 - 327° (NNW) 1,897 3.1 -11.9°
Reaches altitude 10° 21:52:16 10° 338° (NNW) 1,777 3.1 -11.7°
Maximum altitude 21:53:24 11° 355° (N) 1,718 3.2 -11.5°
Drops below altitude 10° 21:54:31 10° 11° (N) 1,777 3.4 -11.2°
Sets 21:58:29 0° 48° (NE) 2,666 4.9 -10.2°
